Regional Weather Roundup
Issued by NWS Austin/San Antonio, TX

Home | Current Version | Previous Version | Text Only | Print | Product List | Glossary On
Versions: 1 2 3 4 5 6 7 8 9 10 11 12 13 14 15 16 17 18 19 20 21 22 23 24 25 26 27 28 29 30 31 32 33 34 35 36 37 38 39 40 41 42 43 44 45 46 47 48 49 50
000
ASUS44 KEWX 251510
RWREWX
SOUTH TEXAS REGIONAL WEATHER ROUNDUP
NATIONAL WEATHER SERVICE AUSTIN/SAN ANTONIO TX
1000 AM CDT WED APR 25 2018

NOTE: "FAIR" INDICATED FEW OR NO CLOUDS BELOW 12,000 FEET WITH NO
SIGNIFICANT WEATHER AND/OR OBSTRUCTIONS TO VISIBILITY.

* - THESE STATIONS ARE NOT NWS OR FAA STATIONS...AND ARE NOT SUBJECT
    TO NWS AND FAA QUALITY CONTROL.

TXZ171-172-183>190-251600-
TEXAS HILL COUNTRY AND EDWARDS PLATEAU

CITY           SKY/WX    TMP DP  RH WIND       PRES   REMARKS
JUNCTION       CLOUDY    71  54  54 CALM      30.13F
*LLANO         SUNNY     73  50  43 W6        30.13S
BURNET         SUNNY     76  44  32 SW9G17    30.12R
*HORSESHOE BAY SUNNY     79  43  27 SW9       30.09F
*KERRVILLE     CLOUDY    72  55  54 SE5       30.13S
*FREDERICKSBRG MOSUNNY   73  48  41 SW8       30.12F
*ROCKSPRINGS   CLOUDY    66  54  63 E9        30.17R
*BOERNE STAGE  MOSUNNY   70  54  56 CALM      30.13S
*CASTROVILLE   MOSUNNY   72  59  64 SE7       30.11R
HONDO          CLOUDY    71  64  78 E9        30.10R
*UVALDE        CLOUDY    67  61  78 E10       30.10R
DEL RIO        CLOUDY    71  58  63 E10       30.06R
LAUGHLIN AFB   NOT AVBL
CARRIZO SPRGS  CLOUDY    70  61  73 E6        30.05S
*EAGLE PASS      N/A    N/A N/A N/A MISG        N/A
*FAITH RANCH   PTSUNNY   77  63  61 E9        30.05R
$$

TXZ173-191>194-202-209-217>225-228-251600-
CENTRAL AND SOUTH CENTRAL TEXAS

CITY           SKY/WX    TMP DP  RH WIND       PRES   REMARKS
GEORGETOWN     SUNNY     76  52  43 SW10      30.10S
AUSTIN/BERGSTM MOSUNNY   74  59  59 SW8       30.08R
AUSTIN/MABRY   SUNNY     76  56  49 CALM      30.09R
*AUSTIN/EXEC   SUNNY     75  55  50 SW9       30.09R
*LAGO VISTA    SUNNY     72  52  48 SW8       30.10S
SAN MARCOS     SUNNY     77  60  55 SW9       30.09F
NEW BRAUNFELS  SUNNY     73  62  68 SW5       30.08F
RANDOLPH AFB   SUNNY     72  63  73 S6        30.09F
PT SAN ANTONIO NOT AVBL
SAN ANTONIO    MOSUNNY   73  60  63 SE5       30.10S
STINSON FIELD  PTSUNNY   74  65  73 VRB3      30.07F
*LA GRANGE     CLOUDY    68  68 100 S5        30.06F
*GIDDINGS      SUNNY     70  62  76 CALM      30.09R
*GONZALES      FOG       65  65 100 S3        30.09S VSB 3/4
$$

TXZ163>164-176>182-195>201-210>213-226-227-235-251600-
SOUTHEAST TEXAS

CITY           SKY/WX    TMP DP  RH WIND       PRES   REMARKS
COLLEGE STN    SUNNY     73  61  65 SW5       30.07F
*BRYAN         SUNNY     74  58  57 W3        30.08F
*CALDWELL      SUNNY     72  60  66 CALM      30.08S
*CROCKETT      SUNNY     73  63  68 SW3       30.10S
*BRENHAM       MOSUNNY   71  67  87 S3        30.09F
HUNTSVILLE     SUNNY     73  59  61 W6        30.07F
CONROE         SUNNY     74  65  73 VRB7      30.09S
HOUSTON BUSH   FAIR      76  64  66 W6        30.08S
HOUSTON HOBBY  FAIR      74  65  73 NW6       30.07S
*HOUSTON SW AP FAIR      74  65  73 W3        30.08F
PEARLAND       FAIR      74  66  76 W5        30.09R
HOUSTON HOOKS  FAIR      74  66  76 NW5       30.09R
ELLINGTON FLD  NOT AVBL
SUGAR LAND     FAIR      76  64  66 W3        30.07S
*HOUSTON EXEC  FAIR      75  66  73 CALM      30.09S
*CLEVELAND MUN FAIR      75  60  59 NW5       30.09S
*WHARTON       SUNNY     71  69  93 S5        30.08S
*COLUMBUS      NOT AVBL
*EAGLE LAKE    MOSUNNY   71  68  90 W5        30.08
$$

TXZ214>216-236>238-251600-
THE UPPER TEXAS COAST

CITY           SKY/WX    TMP DP  RH WIND       PRES   REMARKS
*ORANGE        FAIR      74  65  72 NW5       30.10R
PORT ARTHUR    FAIR      76  64  66 W6        30.07S
GALVESTON      FAIR      74  68  81 S5        30.09R
ANGLETON       FAIR      76  67  73 S6        30.08S
*BAY CITY      MOSUNNY   71  71 100 S5        30.08R
PALACIOS       MOSUNNY   75  69  81 S8        30.07S
$$

TXZ229>234-239>247-251600-
TEXAS COASTAL BEND AND RIO GRANDE PLAINS

CITY           SKY/WX    TMP DP  RH WIND       PRES   REMARKS
VICTORIA       MOSUNNY   73  67  81 S6        30.08S
*BEEVILLE      CLOUDY    67  67 100 E7        30.08S FOG
ROCKPORT       SUNNY     75  68  78 SE9       30.07S
*PORT ARANSAS  NOT AVBL
*PORT LAVACA   SUNNY     74  68  82 S5        30.08R
*INGLESIDE     SUNNY     78  67  69 S9        30.07S
CORPUS CHRISTI MOSUNNY   79  63  57 SE14      30.06R
CORPUS NAS     MOSUNNY   79  70  74 SE14      30.06R
*ROBSTOWN      SUNNY     79  62  55 SE13      30.06R
ALICE          SUNNY     78  63  59 SE13      30.05S
KINGSVILLE NAS MOSUNNY   82  60  47 SE16      30.05R
COTULLA        CLOUDY    71  64  78 SE10      30.06S
LAREDO         CLOUDY    76  64  66 SE12      30.03R
$$

TXZ248>255-251600-
DEEP SOUTH TEXAS

CITY           SKY/WX    TMP DP  RH WIND       PRES   REMARKS
BROWNSVILLE    FAIR      82  65  56 SE13      30.04R
PORT ISABEL    FAIR      79  65  62 E14       30.04R
*SOUTH PADRE   NOT AVBL
HARLINGEN      SUNNY     82  64  54 SE16      30.03R
*HEBBRONVILLE  SUNNY     75  62  64 SE15      30.06R
MCALLEN        SUNNY     82  68  62 SE14      30.03S
*WESLACO       SUNNY    N/A N/A N/A S12G17    30.03R
FALFURRIAS     MOSUNNY   80  63  56 SE10      30.05R
EDINBURG       FAIR      81  64  56 SE12      30.05S
*ZAPATA        CLOUDY    77  64  63 S13G20    30.02S
$$

TXZ213>215-236>238-242>244-246-247-251-254-255-251600-
CMAN STATIONS

STATION/POSITION TIME  TEMP    WIND        PRES    WAVE
                       AIR SEA DIR/SP/G            HT/PER
                 (UTC) (F)     (DEG/KT/KT) (MB)    (FT/S)
SABINE PASS      1436   73 72  310/  3/  6 1020.0
SEA RIM ST PARK  1500   74     280/  5/  7 1018.9
NORTH JETTY/GLS  1436   74 71     CALM     1018.1
EAGLE POINT      1436   74 72   CALM  /  3 1018.3
MORGANS POINT    1436   72 72  280/  2/  4 1018.4
PORT O`CONNOR    1436   72 73  170/  8/ 10 1017.9
PORT ARANSAS     1500   72 74  100/  8/  8 1018.1
MALAQUITE BEACH  1442      74  100/ 10/ 12 1017.5
BAFFIN BAY       1442   74 74  100/ 10/ 12 1017.9
PORT ISABEL      1442   76 76  110/ 11/ 14 1017.3
$$




USA.gov is the U.S. government's official web portal to all federal, state and local government web resources and services.